Year,Month,Day,Hour,Minute,Value (Times are PST for temperature in C)
2018,04,18,07,01,3.80
2018,04,18,07,02,3.80
2018,04,18,07,03,3.80
2018,04,18,07,04,3.80
2018,04,18,07,05,3.90
2018,04,18,07,06,3.90
2018,04,18,07,07,4.00
2018,04,18,07,08,4.00
2018,04,18,07,09,4.10
2018,04,18,07,10,4.10
2018,04,18,07,11,4.10
2018,04,18,07,12,4.20
2018,04,18,07,13,4.20
2018,04,18,07,14,4.20
2018,04,18,07,15,4.20
2018,04,18,07,16,4.20
2018,04,18,07,17,4.30
2018,04,18,07,18,4.30
2018,04,18,07,19,4.40
2018,04,18,07,20,4.40
2018,04,18,07,21,4.40
2018,04,18,07,22,4.40
2018,04,18,07,23,4.40
2018,04,18,07,24,4.40
2018,04,18,07,25,4.40
2018,04,18,07,26,4.40
2018,04,18,07,27,4.40
2018,04,18,07,28,4.40
2018,04,18,07,29,4.40
2018,04,18,07,30,4.40
2018,04,18,07,31,4.40
2018,04,18,07,32,4.40
2018,04,18,07,33,4.40
2018,04,18,07,34,4.40
2018,04,18,07,35,4.40
2018,04,18,07,36,4.40
2018,04,18,07,37,4.40
2018,04,18,07,38,4.40
2018,04,18,07,39,4.40
2018,04,18,07,40,4.50
2018,04,18,07,41,4.50
2018,04,18,07,42,4.50
2018,04,18,07,43,4.60
2018,04,18,07,44,4.60
2018,04,18,07,45,4.60
2018,04,18,07,46,4.70
2018,04,18,07,47,4.70
2018,04,18,07,48,4.80
2018,04,18,07,49,4.80
2018,04,18,07,50,4.90
2018,04,18,07,51,4.90
2018,04,18,07,52,5.00
2018,04,18,07,53,5.00
2018,04,18,07,54,5.10
2018,04,18,07,55,5.10
2018,04,18,07,56,5.20
2018,04,18,07,57,5.20
2018,04,18,07,58,5.20
2018,04,18,07,59,5.20
2018,04,18,08,00,5.30
2018,04,18,08,01,5.30
2018,04,18,08,02,5.30
2018,04,18,08,03,5.40
2018,04,18,08,04,5.40
2018,04,18,08,05,5.40
2018,04,18,08,06,5.40
2018,04,18,08,07,5.50
2018,04,18,08,08,5.60
2018,04,18,08,09,5.60
2018,04,18,08,10,5.70
2018,04,18,08,11,5.70
2018,04,18,08,12,5.70
2018,04,18,08,13,5.80
2018,04,18,08,14,5.80
2018,04,18,08,15,5.90
2018,04,18,08,16,5.90
2018,04,18,08,17,6.00
2018,04,18,08,18,6.00
2018,04,18,08,19,6.10
2018,04,18,08,20,6.10
2018,04,18,08,21,6.10
2018,04,18,08,22,6.20
2018,04,18,08,23,6.20
2018,04,18,08,24,6.30
2018,04,18,08,25,6.30
2018,04,18,08,26,6.30
2018,04,18,08,27,6.40
2018,04,18,08,28,6.40
2018,04,18,08,29,6.50
2018,04,18,08,30,6.50
2018,04,18,08,31,6.60
2018,04,18,08,32,6.60
2018,04,18,08,33,6.70
2018,04,18,08,34,6.70
2018,04,18,08,35,6.70
2018,04,18,08,36,6.70
2018,04,18,08,37,6.80
2018,04,18,08,38,6.80
2018,04,18,08,39,6.90
2018,04,18,08,40,6.90
2018,04,18,08,41,7.00
2018,04,18,08,42,7.00
2018,04,18,08,43,7.10
2018,04,18,08,44,7.10
2018,04,18,08,45,7.10
2018,04,18,08,46,7.10
2018,04,18,08,47,7.20
2018,04,18,08,48,7.20
2018,04,18,08,49,7.20
2018,04,18,08,50,7.20
2018,04,18,08,51,7.20
2018,04,18,08,52,7.30
2018,04,18,08,53,7.30
2018,04,18,08,54,7.40
2018,04,18,08,55,7.40
2018,04,18,08,56,7.40
2018,04,18,08,57,7.40
2018,04,18,08,58,7.40
2018,04,18,08,59,7.50
2018,04,18,09,00,7.50
2018,04,18,09,01,7.60
2018,04,18,09,02,7.60
2018,04,18,09,03,7.60
2018,04,18,09,04,7.70
2018,04,18,09,05,7.70
2018,04,18,09,06,7.80
2018,04,18,09,07,7.80
2018,04,18,09,08,7.80
2018,04,18,09,09,7.80
2018,04,18,09,10,7.70
2018,04,18,09,11,7.70
2018,04,18,09,12,7.60
2018,04,18,09,13,7.50
2018,04,18,09,14,7.50
2018,04,18,09,15,7.50
2018,04,18,09,16,7.60
2018,04,18,09,17,7.60
2018,04,18,09,18,7.60
2018,04,18,09,19,7.50
2018,04,18,09,20,7.50
2018,04,18,09,21,7.50
2018,04,18,09,22,7.40
2018,04,18,09,23,7.40
2018,04,18,09,24,7.40
2018,04,18,09,25,7.40
2018,04,18,09,26,7.40
2018,04,18,09,27,7.50
2018,04,18,09,28,7.50
2018,04,18,09,29,7.50
2018,04,18,09,30,7.50
2018,04,18,09,31,7.50
2018,04,18,09,32,7.50
2018,04,18,09,33,7.50
2018,04,18,09,34,7.50
2018,04,18,09,35,7.50
2018,04,18,09,36,7.50
2018,04,18,09,37,7.50
2018,04,18,09,38,7.50
2018,04,18,09,39,7.50
2018,04,18,09,40,7.50
2018,04,18,09,41,7.60
2018,04,18,09,42,7.60
2018,04,18,09,43,7.60
2018,04,18,09,44,7.60
2018,04,18,09,45,7.70
2018,04,18,09,46,7.70
2018,04,18,09,47,7.70
2018,04,18,09,48,7.70
2018,04,18,09,49,7.70
2018,04,18,09,50,7.80
2018,04,18,09,51,7.70
2018,04,18,09,52,7.70
2018,04,18,09,53,7.70
2018,04,18,09,54,7.70
2018,04,18,09,55,7.80
2018,04,18,09,56,7.80
2018,04,18,09,57,7.80
2018,04,18,09,58,7.80
2018,04,18,09,59,7.90
2018,04,18,10,00,7.90
2018,04,18,10,01,7.90
2018,04,18,10,02,7.90
2018,04,18,10,03,7.90
2018,04,18,10,04,7.90
2018,04,18,10,05,7.90
2018,04,18,10,06,7.90
2018,04,18,10,07,7.90
2018,04,18,10,08,7.90
2018,04,18,10,09,7.90
2018,04,18,10,10,7.90
2018,04,18,10,11,7.90
2018,04,18,10,12,8.00
2018,04,18,10,13,8.00
2018,04,18,10,14,8.00
2018,04,18,10,15,8.00
2018,04,18,10,16,8.00
2018,04,18,10,17,8.00
2018,04,18,10,18,8.00
2018,04,18,10,19,8.00
2018,04,18,10,20,8.00
2018,04,18,10,21,8.00
2018,04,18,10,22,8.00
2018,04,18,10,23,8.10
2018,04,18,10,24,8.10
2018,04,18,10,25,8.20
2018,04,18,10,26,8.20
2018,04,18,10,27,8.20
2018,04,18,10,28,8.20
2018,04,18,10,29,8.20
2018,04,18,10,30,8.30
2018,04,18,10,31,8.30
2018,04,18,10,32,8.30
2018,04,18,10,33,8.30
2018,04,18,10,34,8.30
2018,04,18,10,35,8.40
2018,04,18,10,36,8.40
2018,04,18,10,37,8.40
2018,04,18,10,38,8.40
2018,04,18,10,39,8.40
2018,04,18,10,40,8.50
2018,04,18,10,41,8.40
2018,04,18,10,42,8.40
2018,04,18,10,43,8.40
2018,04,18,10,44,8.50
2018,04,18,10,45,8.50
2018,04,18,10,46,8.50
2018,04,18,10,47,8.60
2018,04,18,10,48,8.60
2018,04,18,10,49,8.60
2018,04,18,10,50,8.60
2018,04,18,10,51,8.70
2018,04,18,10,52,8.80
2018,04,18,10,53,8.80
2018,04,18,10,54,8.90
2018,04,18,10,55,8.90
2018,04,18,10,56,9.00
2018,04,18,10,57,8.90
2018,04,18,10,58,9.00
2018,04,18,10,59,9.00
2018,04,18,11,00,8.90
2018,04,18,11,01,8.90
2018,04,18,11,02,8.90
2018,04,18,11,03,9.00
2018,04,18,11,04,9.00
2018,04,18,11,05,9.00
2018,04,18,11,06,9.10
2018,04,18,11,07,9.10
2018,04,18,11,08,9.10
2018,04,18,11,09,9.20
2018,04,18,11,10,9.20
2018,04,18,11,11,9.20
2018,04,18,11,12,9.20
2018,04,18,11,13,9.30
2018,04,18,11,14,9.30
2018,04,18,11,15,9.20
2018,04,18,11,16,9.20
2018,04,18,11,17,9.10
2018,04,18,11,18,9.10
2018,04,18,11,19,9.10
2018,04,18,11,20,9.10
2018,04,18,11,21,9.20
2018,04,18,11,22,9.20
2018,04,18,11,23,9.20
2018,04,18,11,24,9.30
2018,04,18,11,25,9.30
2018,04,18,11,26,9.30
2018,04,18,11,27,9.30
2018,04,18,11,28,9.40
2018,04,18,11,29,9.50
2018,04,18,11,30,9.60
2018,04,18,11,31,9.70
2018,04,18,11,32,9.70
2018,04,18,11,33,9.80
2018,04,18,11,34,9.90
2018,04,18,11,35,9.90
2018,04,18,11,36,9.90
2018,04,18,11,37,9.80
2018,04,18,11,38,9.70
2018,04,18,11,39,9.60
2018,04,18,11,40,9.60
2018,04,18,11,41,9.50
2018,04,18,11,42,9.50
2018,04,18,11,43,9.50
2018,04,18,11,44,9.50
2018,04,18,11,45,9.50
2018,04,18,11,46,9.60
2018,04,18,11,47,9.60
2018,04,18,11,48,9.70
2018,04,18,11,49,9.70
2018,04,18,11,50,9.70
2018,04,18,11,51,9.80
2018,04,18,11,52,9.90
2018,04,18,11,53,9.80
2018,04,18,11,54,9.80
2018,04,18,11,55,9.90
2018,04,18,11,56,10.00
2018,04,18,11,57,10.00
2018,04,18,11,58,10.00
2018,04,18,11,59,9.90
2018,04,18,12,00,9.80
2018,04,18,12,01,9.80
2018,04,18,12,02,9.80
2018,04,18,12,03,9.80
2018,04,18,12,04,9.90
2018,04,18,12,05,9.90
2018,04,18,12,06,10.10
2018,04,18,12,07,10.00
2018,04,18,12,08,9.90
2018,04,18,12,09,9.90
2018,04,18,12,10,9.80
2018,04,18,12,11,9.80
2018,04,18,12,12,9.70
2018,04,18,12,13,9.70
2018,04,18,12,14,9.70
2018,04,18,12,15,9.70
2018,04,18,12,16,9.70
2018,04,18,12,17,9.60
2018,04,18,12,18,9.60
2018,04,18,12,19,9.60
2018,04,18,12,20,9.70
2018,04,18,12,21,9.80
2018,04,18,12,22,9.80
2018,04,18,12,23,9.90
2018,04,18,12,24,10.00
2018,04,18,12,25,10.00
2018,04,18,12,26,10.00
2018,04,18,12,27,9.90
2018,04,18,12,28,9.90
2018,04,18,12,29,9.90
2018,04,18,12,30,10.00
2018,04,18,12,31,10.00
2018,04,18,12,32,10.20
2018,04,18,12,33,10.30
2018,04,18,12,34,10.40
2018,04,18,12,35,10.40
2018,04,18,12,36,10.40
2018,04,18,12,37,10.40
2018,04,18,12,38,10.30
2018,04,18,12,39,10.10
2018,04,18,12,40,10.00
2018,04,18,12,41,9.90
2018,04,18,12,42,10.00
2018,04,18,12,43,10.00
2018,04,18,12,44,10.00
2018,04,18,12,45,10.00
2018,04,18,12,46,9.90
2018,04,18,12,47,9.90
2018,04,18,12,48,9.90
2018,04,18,12,49,10.00
2018,04,18,12,50,9.90
2018,04,18,12,51,9.80
2018,04,18,12,52,9.80
2018,04,18,12,53,9.70
2018,04,18,12,54,9.70
2018,04,18,12,55,9.70
2018,04,18,12,56,9.80
2018,04,18,12,57,9.90
2018,04,18,12,58,10.00
2018,04,18,12,59,10.10
2018,04,18,13,00,10.20
2018,04,18,13,01,10.30
2018,04,18,13,02,10.30
2018,04,18,13,03,10.20
2018,04,18,13,04,10.20
2018,04,18,13,05,10.20
2018,04,18,13,06,10.20
2018,04,18,13,07,10.20
2018,04,18,13,08,10.30
2018,04,18,13,09,10.30
2018,04,18,13,10,10.40
2018,04,18,13,11,10.50
2018,04,18,13,12,10.50
2018,04,18,13,13,10.60
2018,04,18,13,14,10.60
2018,04,18,13,15,10.60
2018,04,18,13,16,10.60
2018,04,18,13,17,10.70
2018,04,18,13,18,10.60
2018,04,18,13,19,10.50
2018,04,18,13,20,10.50
2018,04,18,13,21,10.40
2018,04,18,13,22,10.30
2018,04,18,13,23,10.20
2018,04,18,13,24,10.20
2018,04,18,13,25,10.30
2018,04,18,13,26,10.40
2018,04,18,13,27,10.60
2018,04,18,13,28,10.60
2018,04,18,13,29,10.70
2018,04,18,13,30,10.60
2018,04,18,13,31,10.60
2018,04,18,13,32,10.60
2018,04,18,13,33,10.60
2018,04,18,13,34,10.70
2018,04,18,13,35,10.70
2018,04,18,13,36,10.70
2018,04,18,13,37,10.70
2018,04,18,13,38,10.70
2018,04,18,13,39,10.70
2018,04,18,13,40,10.70
2018,04,18,13,41,10.80
2018,04,18,13,42,10.90
2018,04,18,13,43,11.00
2018,04,18,13,44,11.20
2018,04,18,13,45,11.10
2018,04,18,13,46,11.00
2018,04,18,13,47,10.90
2018,04,18,13,48,10.80
2018,04,18,13,49,10.80
2018,04,18,13,50,10.70
2018,04,18,13,51,10.80
2018,04,18,13,52,10.80
2018,04,18,13,53,10.80
2018,04,18,13,54,10.70
2018,04,18,13,55,10.80
2018,04,18,13,56,10.90
2018,04,18,13,57,10.90
2018,04,18,13,58,10.80
2018,04,18,13,59,10.80
2018,04,18,14,00,10.80
2018,04,18,14,01,10.80
2018,04,18,14,02,10.80
2018,04,18,14,03,10.90
2018,04,18,14,04,11.00
2018,04,18,14,05,11.10
2018,04,18,14,06,11.10
2018,04,18,14,07,11.00
2018,04,18,14,08,10.90
2018,04,18,14,09,11.00
2018,04,18,14,10,11.00
2018,04,18,14,11,11.10
2018,04,18,14,12,11.00
2018,04,18,14,13,11.00
2018,04,18,14,14,10.90
2018,04,18,14,15,11.00
2018,04,18,14,16,11.10
2018,04,18,14,17,11.10
2018,04,18,14,18,11.30
2018,04,18,14,19,11.30
2018,04,18,14,20,11.50
2018,04,18,14,21,11.50
2018,04,18,14,22,11.50
2018,04,18,14,23,11.40
2018,04,18,14,24,11.20
2018,04,18,14,25,11.00
2018,04,18,14,26,10.90
2018,04,18,14,27,10.90
2018,04,18,14,28,10.90
2018,04,18,14,29,11.00
2018,04,18,14,30,11.10
2018,04,18,14,31,11.30
2018,04,18,14,32,11.40
2018,04,18,14,33,11.50
2018,04,18,14,34,11.50
2018,04,18,14,35,11.40
2018,04,18,14,36,11.30
2018,04,18,14,37,11.10
2018,04,18,14,38,11.00
2018,04,18,14,39,11.00
2018,04,18,14,40,10.90
2018,04,18,14,41,10.90
2018,04,18,14,42,11.00
2018,04,18,14,43,11.10
2018,04,18,14,44,11.10
2018,04,18,14,45,11.10
2018,04,18,14,46,11.10
2018,04,18,14,47,11.20
2018,04,18,14,48,11.30
2018,04,18,14,49,11.30
2018,04,18,14,50,11.40
2018,04,18,14,51,11.40
2018,04,18,14,52,11.40
2018,04,18,14,53,11.50
2018,04,18,14,54,11.50
2018,04,18,14,55,11.60
2018,04,18,14,56,11.70
2018,04,18,14,57,11.70
2018,04,18,14,58,11.70
2018,04,18,14,59,11.60
2018,04,18,15,00,11.50
2018,04,18,15,01,11.50
2018,04,18,15,02,11.40
2018,04,18,15,03,11.40
2018,04,18,15,04,11.40
2018,04,18,15,05,11.40
2018,04,18,15,06,11.30
2018,04,18,15,07,11.30
2018,04,18,15,08,11.20
2018,04,18,15,09,11.30
2018,04,18,15,10,11.30
2018,04,18,15,11,11.20
2018,04,18,15,12,11.20
2018,04,18,15,13,11.20
2018,04,18,15,14,11.20
2018,04,18,15,15,11.10
2018,04,18,15,16,11.10
2018,04,18,15,17,11.10
2018,04,18,15,18,11.10
2018,04,18,15,19,11.10
2018,04,18,15,20,11.20
2018,04,18,15,21,11.20
2018,04,18,15,22,11.20
2018,04,18,15,23,11.20
2018,04,18,15,24,11.20
2018,04,18,15,25,11.30
2018,04,18,15,26,11.30
2018,04,18,15,27,11.30
2018,04,18,15,28,11.20
2018,04,18,15,29,11.20
2018,04,18,15,30,11.20
2018,04,18,15,31,11.30
2018,04,18,15,32,11.40
2018,04,18,15,33,11.40
2018,04,18,15,34,11.40
2018,04,18,15,35,11.40
2018,04,18,15,36,11.40
2018,04,18,15,37,11.40
2018,04,18,15,38,11.30
2018,04,18,15,39,11.30
2018,04,18,15,40,11.40
2018,04,18,15,41,11.40
2018,04,18,15,42,11.40
2018,04,18,15,43,11.50
2018,04,18,15,44,11.60
2018,04,18,15,45,11.60
2018,04,18,15,46,11.60
2018,04,18,15,47,11.60
2018,04,18,15,48,11.50
2018,04,18,15,49,11.40
2018,04,18,15,50,11.40
2018,04,18,15,51,11.40
2018,04,18,15,52,11.50
2018,04,18,15,53,11.50
2018,04,18,15,54,11.50
2018,04,18,15,55,11.40
2018,04,18,15,56,11.30
2018,04,18,15,57,11.40
2018,04,18,15,58,11.40
2018,04,18,15,59,11.40
2018,04,18,16,00,11.50
2018,04,18,16,01,11.50
2018,04,18,16,02,11.50
2018,04,18,16,03,11.60
2018,04,18,16,04,11.70
2018,04,18,16,05,11.80
2018,04,18,16,06,11.80
2018,04,18,16,07,11.80
2018,04,18,16,08,11.70
2018,04,18,16,09,11.70
2018,04,18,16,10,11.70
2018,04,18,16,11,11.70
2018,04,18,16,12,11.60
2018,04,18,16,13,11.60
2018,04,18,16,14,11.60
2018,04,18,16,15,11.60
2018,04,18,16,16,11.60
2018,04,18,16,17,11.60
2018,04,18,16,18,11.60
2018,04,18,16,19,11.70
2018,04,18,16,20,11.80
2018,04,18,16,21,11.90
2018,04,18,16,22,12.00
2018,04,18,16,23,11.90
2018,04,18,16,24,11.80
2018,04,18,16,25,11.70
2018,04,18,16,26,11.70
2018,04,18,16,27,11.70
2018,04,18,16,28,11.80
2018,04,18,16,29,11.80
2018,04,18,16,30,11.90
2018,04,18,16,31,12.00
2018,04,18,16,32,12.10
2018,04,18,16,33,12.00
2018,04,18,16,34,11.90
2018,04,18,16,35,11.90
2018,04,18,16,36,11.90
2018,04,18,16,37,11.80
2018,04,18,16,38,11.80
2018,04,18,16,39,11.80
2018,04,18,16,40,11.80
2018,04,18,16,41,11.80
2018,04,18,16,42,11.80
2018,04,18,16,43,12.00
2018,04,18,16,44,12.00
2018,04,18,16,45,12.00
2018,04,18,16,46,12.00
2018,04,18,16,47,11.90
2018,04,18,16,48,11.90
2018,04,18,16,49,11.90
2018,04,18,16,50,11.90
2018,04,18,16,51,12.00
2018,04,18,16,52,12.10
2018,04,18,16,53,12.10
2018,04,18,16,54,12.10
2018,04,18,16,55,12.10
2018,04,18,16,56,12.10
2018,04,18,16,57,12.10
2018,04,18,16,58,12.10
2018,04,18,16,59,12.00
2018,04,18,17,00,12.00
2018,04,18,17,01,11.90
2018,04,18,17,02,11.80
2018,04,18,17,03,11.70
2018,04,18,17,04,11.60
2018,04,18,17,05,11.50
2018,04,18,17,06,11.50
2018,04,18,17,07,11.50
2018,04,18,17,08,11.50
2018,04,18,17,09,11.60
2018,04,18,17,10,11.60
2018,04,18,17,11,11.60
2018,04,18,17,12,11.70
2018,04,18,17,13,11.70
2018,04,18,17,14,11.80
2018,04,18,17,15,11.80
2018,04,18,17,16,11.90
2018,04,18,17,17,11.90
2018,04,18,17,18,12.00
2018,04,18,17,19,12.10
2018,04,18,17,20,12.20
2018,04,18,17,21,12.20
2018,04,18,17,22,12.20
2018,04,18,17,23,12.20
2018,04,18,17,24,12.20
2018,04,18,17,25,12.20
2018,04,18,17,26,12.30
2018,04,18,17,27,12.30
2018,04,18,17,28,12.30
2018,04,18,17,29,12.20
2018,04,18,17,30,12.10
2018,04,18,17,31,12.00
2018,04,18,17,32,11.90
2018,04,18,17,33,11.90
2018,04,18,17,34,11.90
2018,04,18,17,35,11.80
2018,04,18,17,36,11.80
2018,04,18,17,37,11.70
2018,04,18,17,38,11.70
2018,04,18,17,39,11.70
2018,04,18,17,40,11.70
2018,04,18,17,41,11.70
2018,04,18,17,42,11.70
2018,04,18,17,43,11.70
2018,04,18,17,44,11.70
2018,04,18,17,45,11.70
2018,04,18,17,46,11.70
2018,04,18,17,47,11.70
2018,04,18,17,48,11.70
2018,04,18,17,49,11.70
2018,04,18,17,50,11.60
2018,04,18,17,51,11.60
2018,04,18,17,52,11.60
2018,04,18,17,53,11.70
2018,04,18,17,54,11.70
2018,04,18,17,55,11.70
2018,04,18,17,56,11.70
2018,04,18,17,57,11.70
2018,04,18,17,58,11.80
2018,04,18,17,59,11.80
2018,04,18,18,00,11.80
2018,04,18,18,01,11.80
2018,04,18,18,02,11.70
2018,04,18,18,03,11.70
2018,04,18,18,04,11.60
2018,04,18,18,05,11.60
2018,04,18,18,06,11.60
2018,04,18,18,07,11.60
2018,04,18,18,08,11.60
2018,04,18,18,09,11.60
2018,04,18,18,10,11.60
2018,04,18,18,11,11.60
2018,04,18,18,12,11.70
2018,04,18,18,13,11.70
2018,04,18,18,14,11.70
2018,04,18,18,15,11.70
2018,04,18,18,16,11.70
2018,04,18,18,17,11.70
2018,04,18,18,18,11.60
2018,04,18,18,19,11.60
2018,04,18,18,20,11.60
2018,04,18,18,21,11.60
2018,04,18,18,22,11.60
2018,04,18,18,23,11.60
2018,04,18,18,24,11.60
2018,04,18,18,25,11.60
2018,04,18,18,26,11.50
2018,04,18,18,27,11.50
2018,04,18,18,28,11.50
2018,04,18,18,29,11.50
2018,04,18,18,30,11.50
2018,04,18,18,31,11.50
2018,04,18,18,32,11.50
2018,04,18,18,33,11.60
2018,04,18,18,34,11.60
2018,04,18,18,35,11.60
2018,04,18,18,36,11.60
2018,04,18,18,37,11.70
2018,04,18,18,38,11.80
2018,04,18,18,39,11.80
2018,04,18,18,40,11.90
2018,04,18,18,41,12.00
2018,04,18,18,42,12.20
2018,04,18,18,43,12.20
2018,04,18,18,44,12.30
2018,04,18,18,45,12.40
2018,04,18,18,46,12.40
2018,04,18,18,47,12.40
2018,04,18,18,48,12.30
2018,04,18,18,49,12.30
2018,04,18,18,50,12.20
2018,04,18,18,51,12.20
2018,04,18,18,52,12.20
2018,04,18,18,53,12.20
2018,04,18,18,54,12.10
2018,04,18,18,55,12.00
2018,04,18,18,56,11.90
2018,04,18,18,57,11.90
2018,04,18,18,58,11.80
2018,04,18,18,59,11.80
2018,04,18,19,00,11.80
2018,04,18,19,01,11.70
2018,04,18,19,02,11.80
2018,04,18,19,03,11.80
2018,04,18,19,04,11.90
2018,04,18,19,05,12.00
2018,04,18,19,06,12.00
2018,04,18,19,07,12.10
2018,04,18,19,08,12.20
2018,04,18,19,09,12.30
2018,04,18,19,10,12.30
2018,04,18,19,11,12.40
2018,04,18,19,12,12.50
2018,04,18,19,13,12.50
2018,04,18,19,14,12.50
2018,04,18,19,15,12.40
2018,04,18,19,16,12.30
2018,04,18,19,17,12.20
2018,04,18,19,18,12.10
2018,04,18,19,19,12.00
2018,04,18,19,20,11.90
2018,04,18,19,21,11.80
2018,04,18,19,22,11.80
2018,04,18,19,23,11.70
2018,04,18,19,24,11.60
2018,04,18,19,25,11.60
2018,04,18,19,26,11.50
2018,04,18,19,27,11.40
2018,04,18,19,28,11.40
2018,04,18,19,29,11.40
2018,04,18,19,30,11.30
2018,04,18,19,31,11.30
2018,04,18,19,32,11.30
2018,04,18,19,33,11.30
2018,04,18,19,34,11.30
2018,04,18,19,35,11.30
2018,04,18,19,36,11.30
2018,04,18,19,37,11.30
2018,04,18,19,38,11.30
2018,04,18,19,39,11.30
2018,04,18,19,40,11.30
2018,04,18,19,41,11.20
2018,04,18,19,42,11.20
2018,04,18,19,43,11.10
2018,04,18,19,44,11.00
2018,04,18,19,45,11.00
2018,04,18,19,46,10.80
2018,04,18,19,47,10.80
2018,04,18,19,48,10.60
2018,04,18,19,49,10.50
2018,04,18,19,50,10.40
2018,04,18,19,51,10.30
2018,04,18,19,52,10.20
2018,04,18,19,53,10.00
2018,04,18,19,54,9.90
2018,04,18,19,55,9.90
2018,04,18,19,56,9.90
2018,04,18,19,57,9.90
2018,04,18,19,58,9.90
2018,04,18,19,59,9.90
2018,04,18,20,00,9.90
2018,04,18,20,01,9.90
2018,04,18,20,02,9.90
2018,04,18,20,03,9.90
2018,04,18,20,04,9.90
